Location: Newark
(50.4348°N, 30.5552°E)
Time: 00:57:26
(UTC+00:00)

Transit 2A Rocket - Pass Details

Date: 30 January 2020
Orbit: 591 x 911 km, 66.7° (Epoch: 20 February)

Event Time Altitude Azimuth Distance (km) Brightness Sun altitude
Exits shadow 02:28:34 32° 46° (NE) 1,054 6.1 -29.9°
Drops below altitude 10° 02:30:59 10° 40° (NE) 1,976 7.7 -29.5°
Sets 02:33:18 0° 39° (NE) 2,915 8.6 -29.1°
